Weather reports worldwide

Advertisment
Köln-Bonn, Germany (10513): temperature & dewpoint: 09.08.2020 21:00:00 - 15.08.2020 21:00:00 (CEST)Köln-Bonn, Germany (10513): temperature 5cm & temperature -5cm: 09.08.2020 21:00:00 - 15.08.2020 21:00:00 (CEST)Köln-Bonn, Germany (10513): temperature -20cm & temperature -100cm: 09.08.2020 21:00:00 - 15.08.2020 21:00:00 (CEST)Köln-Bonn, Germany (10513): wind speed & gusts: 09.08.2020 21:00:00 - 15.08.2020 21:00:00 (CEST)Köln-Bonn, Germany (10513): wind direction: 09.08.2020 21:00:00 - 15.08.2020 21:00:00 (CEST)Köln-Bonn, Germany (10513): reduced air pressure: 09.08.2020 21:00:00 - 15.08.2020 21:00:00 (CEST)Köln-Bonn, Germany (10513): visibility: 09.08.2020 21:00:00 - 15.08.2020 21:00:00 (CEST)Köln-Bonn, Germany (10513): sunshine duration: 09.08.2020 21:00:00 - 15.08.2020 21:00:00 (CEST)Köln-Bonn, Germany (10513): precipitation: 09.08.2020 21:00:00 - 15.08.2020 21:00:00 (CEST)
Date & Time tt [°C] td [°C] tt 5cm [°C] tt -5cm [°C] tt -20cm [°C] tt -100cm [°C] ff [km/h] ff [kn] fx [km/h] fx [kn] dd ppp [hPa] vv [km] sd [min] rr [mm]
15.08.2020 21:00:00 22,3 19,9 21,7 24,8 25,3 21,6 6 4 8 4 NNW 1013,7 18 0 0,0
15.08.2020 20:00:00 23,1 19,7 23,2 26,1 25,5 21,6 5 3 15 8 NW 1013,5 10 0 0,0
15.08.2020 19:00:00 24,1 20,0 24,9 27,6 25,5 21,6 9 5 25 13 NW 1013,8 10 16 0,0
15.08.2020 18:00:00 25,6 19,1 30,9 28,9 25,3 21,6 13 7 23 13 N 1014,0 10 30 0,0
15.08.2020 17:00:00 24,2 18,0 26,5 27,9 25,2 21,6 12 7 18 10 NE 1014,1 35 7 0,0
15.08.2020 16:00:00 22,6 18,0 24,1 27,6 25,0 21,7 11 6 28 15 ESE 1014,2 10 0 0,0
15.08.2020 15:00:00 25,2 16,5 27,2 30,5 24,5 21,7 24 13 37 20 NE 1014,5 10 35 0,0
15.08.2020 14:00:00 26,6 18,3 30,0 31,4 23,6 21,7 5 3 13 7 - 1014,3 10 51 0,0
15.08.2020 13:00:00 25,2 18,0 28,8 29,6 22,8 21,7 5 3 11 6 - 1014,7 10 51 0,0
15.08.2020 12:00:00 23,5 19,1 25,0 25,9 22,4 21,7 7 4 11 6 NNW 1015,2 20 0 0,0
15.08.2020 11:00:00 22,9 19,2 23,6 25,1 21,9 21,7 4 2 11 6 - 1015,2 10 18 0,0
15.08.2020 10:00:00 22,4 18,1 23,7 23,3 21,7 21,7 4 2 5 3 SSW 1015,1 40 48 0,0
15.08.2020 09:00:00 19,4 17,8 20,0 20,5 21,7 21,7 3 2 5 3 E 1015,3 30 4 0,0
15.08.2020 08:00:00 18,2 17,5 18,1 19,9 21,8 21,7 4 2 5 3 S 1015,1 20 0 0,0
15.08.2020 07:00:00 17,7 17,1 17,3 19,7 22,0 21,7 4 2 6 3 - 1014,6 10 0 0,0
15.08.2020 06:00:00 17,9 17,3 17,6 19,8 22,2 21,7 6 3 9 5 SE 1014,3 50 0 0,0
15.08.2020 05:00:00 17,8 17,3 17,5 19,7 22,4 21,7 5 3 15 8 SSE 1014,3 60 0 0,0
15.08.2020 04:00:00 18,1 17,3 17,5 19,8 22,7 21,7 8 5 9 5 E 1014,6 60 0 0,0
15.08.2020 03:00:00 17,8 17,1 17,3 20,1 23,0 21,7 2 1 9 5 ENE 1014,7 60 0 0,0
15.08.2020 02:00:00 18,2 17,5 17,7 20,6 23,3 21,7 6 4 8 4 ESE 1014,8 60 0 0,0
15.08.2020 01:00:00 18,7 17,6 18,2 21,0 23,6 21,7 5 3 8 4 SSW 1015,0 60 0 0,0
15.08.2020 00:00:00 19,1 17,2 18,4 21,3 24,0 21,7 5 3 16 9 S 1014,3 70 0 0,0
14.08.2020 23:00:00 19,0 17,5 18,5 21,5 24,5 21,7 13 7 26 14 E 1014,3 65 0 6,2
14.08.2020 22:00:00 18,9 17,2 18,3 22,6 24,9 21,7 10 5 62 34 N 1014,4 12 0 5,7
14.08.2020 21:00:00 23,9 18,7 23,2 24,8 25,1 21,7 6 4 11 6 NNE 1012,8 60 4 0,0
14.08.2020 20:00:00 25,9 18,4 25,5 26,2 25,1 21,8 6 3 13 7 SSW 1012,3 60 17 0,0
14.08.2020 19:00:00 25,4 17,5 25,9 26,2 25,1 21,8 9 5 28 15 ESE 1012,1 10 0 0,0
14.08.2020 18:00:00 28,2 17,4 29,9 27,5 25,1 21,8 8 5 15 8 S 1012,0 60 18 0,0
14.08.2020 17:00:00 26,3 17,7 26,7 27,6 24,8 21,8 9 5 21 11 ESE 1012,2 10 1 0,0
14.08.2020 16:00:00 27,1 16,7 29,2 28,9 24,5 21,8 9 5 16 9 ESE 1012,5 60 15 0,0
14.08.2020 15:00:00 25,7 16,5 27,1 26,7 24,3 21,8 11 6 18 10 SE 1013,0 65 0 0,0
14.08.2020 14:00:00 25,7 16,1 27,1 26,9 24,0 21,8 15 8 22 12 SSE 1013,5 10 6 0,0
14.08.2020 13:00:00 25,8 15,6 27,2 26,4 23,7 21,8 13 7 29 16 S 1013,5 10 0 0,0
14.08.2020 12:00:00 26,3 16,1 28,2 27,0 23,2 21,8 15 8 22 12 SSW 1013,5 65 41 0,0
14.08.2020 11:00:00 25,8 16,3 29,2 26,0 22,8 21,8 8 4 15 8 - 1013,5 10 31 0,0
14.08.2020 10:00:00 24,4 15,3 25,8 23,9 22,6 21,8 6 3 10 6 SW 1013,1 70 29 0,0
14.08.2020 09:00:00 22,6 17,2 24,1 22,4 22,6 21,8 7 4 11 6 SSW 1013,2 60 31 0,0
14.08.2020 08:00:00 19,9 17,0 19,5 20,4 22,8 21,8 3 2 8 4 SSW 1013,1 60 0 0,0
14.08.2020 07:00:00 18,4 16,7 17,5 20,1 23,1 21,8 5 3 8 4 ESE 1012,9 60 0 0,0
14.08.2020 06:00:00 19,8 16,9 18,0 20,6 23,3 21,8 4 2 8 4 - 1012,6 10 0 0,0
14.08.2020 05:00:00 20,5 18,0 19,2 21,2 23,6 21,8 5 3 9 5 SSE 1012,3 35 0 0,0
14.08.2020 04:00:00 20,5 19,2 19,8 21,8 23,9 21,8 4 2 8 4 - 1012,3 10 0 0,0
14.08.2020 03:00:00 21,2 19,4 20,4 22,3 24,1 21,8 4 2 8 4 SE 1012,4 35 0 0,0
14.08.2020 02:00:00 22,4 19,0 21,0 22,7 24,3 21,9 2 1 8 4 NW 1012,5 35 0 0,0
14.08.2020 01:00:00 22,2 19,6 21,1 23,1 24,6 21,9 4 2 5 3 ESE 1012,6 35 0 0,0
14.08.2020 00:00:00 22,1 19,9 21,5 23,3 24,9 21,9 3 2 9 5 E 1012,4 35 0 0,0
13.08.2020 23:00:00 23,0 19,3 21,6 23,6 25,2 21,9 2 1 13 7 - 1012,0 10 0 0,0
13.08.2020 22:00:00 24,8 19,0 23,8 24,4 25,5 21,9 14 7 22 12 NW 1012,0 45 0 0,0
13.08.2020 21:00:00 25,2 18,7 23,9 25,4 25,8 21,9 4 2 11 6 S 1011,4 50 0 0,0
13.08.2020 20:00:00 28,5 18,2 27,3 26,7 25,9 21,9 9 5 26 14 SW 1010,8 50 32 0,0
13.08.2020 19:00:00 30,4 16,3 30,5 28,1 25,9 22,0 18 10 26 14 SSW 1010,7 45 28 0,0
13.08.2020 18:00:00 30,5 15,6 30,8 28,8 25,8 22,0 14 7 24 13 SSW 1011,2 45 31 0,0
13.08.2020 17:00:00 30,7 19,0 31,9 29,5 25,4 22,0 14 7 32 17 SSW 1011,0 45 31 0,0
13.08.2020 16:00:00 31,0 19,2 32,9 31,1 24,9 22,0 15 8 28 15 ESE 1011,1 45 58 0,0
13.08.2020 15:00:00 30,4 19,1 32,5 29,5 24,3 22,0 13 7 22 12 SE 1011,5 10 42 0,0
13.08.2020 14:00:00 28,9 19,4 30,7 29,9 23,6 22,0 11 6 24 13 ESE 1011,7 10 55 0,0
13.08.2020 13:00:00 28,2 19,3 30,4 28,3 22,9 22,1 16 9 24 13 ESE 1012,0 45 60 0,0
13.08.2020 12:00:00 26,0 18,9 28,7 26,2 22,4 22,1 16 9 25 14 ESE 1012,3 10 39 0,0
13.08.2020 11:00:00 22,9 19,0 23,9 22,8 22,2 22,1 9 5 20 11 ESE 1012,2 10 0 0,0
13.08.2020 10:00:00 21,4 18,7 21,1 21,5 22,1 22,1 9 5 14 8 ESE 1012,1 10 0 0,0
13.08.2020 09:00:00 20,5 17,9 19,9 20,7 22,2 22,1 9 5 18 10 ESE 1012,3 45 0 0,0
13.08.2020 08:00:00 19,5 17,9 19,0 20,3 22,3 22,1 8 4 11 6 E 1012,7 45 0 0,0
13.08.2020 07:00:00 18,9 17,8 18,1 20,0 22,4 22,1 8 4 13 7 NE 1012,6 10 0 0,0
13.08.2020 06:00:00 18,4 17,4 17,6 20,2 22,6 22,1 2 1 8 4 - 1012,7 10 0 0,0
13.08.2020 05:00:00 19,6 17,7 18,7 20,4 22,8 22,1 8 4 13 7 SE 1012,4 10 0 0,0
13.08.2020 04:00:00 19,6 17,8 18,9 20,5 23,0 22,1 5 3 13 7 SE 1012,5 10 0 0,0
13.08.2020 03:00:00 19,6 17,7 18,8 20,6 23,2 22,1 9 5 23 12 E 1012,3 30 0 0,0
13.08.2020 02:00:00 19,1 18,1 18,6 20,8 23,4 22,1 12 7 18 10 ENE 1012,7 30 0 0,0
13.08.2020 01:00:00 19,3 18,1 18,8 21,0 23,6 22,1 5 3 13 7 ESE 1013,0 10 0 0,0
13.08.2020 00:00:00 19,2 18,3 18,7 21,0 23,9 22,2 8 4 19 10 NNE 1013,1 10 0 0,0
12.08.2020 23:00:00 19,6 18,4 19,1 21,0 24,2 22,2 21 11 36 20 SSE 1014,4 10 0 0,9
12.08.2020 22:00:00 19,5 18,1 18,8 21,2 24,7 22,2 18 10 31 17 ESE 1014,2 10 0 1,9
12.08.2020 21:00:00 19,4 18,1 18,9 21,4 25,3 22,2 15 8 41 22 SE 1013,9 10 0 1,1
12.08.2020 20:00:00 19,8 18,3 19,1 22,1 26,3 22,2 18 10 107 58 SSE 1013,6 15 0 43,5
12.08.2020 19:00:00 18,3 17,7 18,7 26,5 26,7 22,2 72 39 94 51 S 1015,1 1,0 0 0,8
12.08.2020 18:00:00 29,9 20,0 29,4 28,8 26,6 22,2 8 4 18 10 NE 1012,2 10 0 0,0
12.08.2020 17:00:00 30,8 19,0 30,6 30,0 26,3 22,2 11 6 26 14 NE 1012,7 10 35 0,0
12.08.2020 16:00:00 31,4 18,2 34,1 30,6 25,8 22,2 16 9 26 14 E 1012,8 45 41 0,0
12.08.2020 15:00:00 30,6 18,1 33,6 30,5 25,2 22,2 18 10 31 17 SE 1013,6 10 60 0,0
12.08.2020 14:00:00 29,5 18,8 32,2 29,7 24,5 22,2 22 12 32 17 ESE 1014,2 45 60 0,0
12.08.2020 13:00:00 28,0 19,3 30,3 28,2 23,9 22,2 16 9 32 17 SE 1014,8 10 53 0,0
12.08.2020 12:00:00 24,5 18,7 26,8 25,8 23,6 22,2 21 11 29 16 ESE 1015,4 45 24 0,0
12.08.2020 11:00:00 21,9 18,9 22,1 23,1 23,5 22,2 11 6 21 11 SE 1015,6 45 0 0,0
12.08.2020 10:00:00 20,3 18,5 19,9 21,7 23,7 22,2 18 10 24 13 SE 1015,5 45 0 0,5
12.08.2020 09:00:00 19,9 18,7 19,7 21,6 23,9 22,2 8 4 16 8 SSW 1016,2 12 0 15,5
12.08.2020 08:00:00 19,9 18,2 19,2 21,4 24,2 22,2 5 3 34 18 - 1016,1 10 0 0,0
12.08.2020 07:00:00 20,2 17,8 19,2 21,4 24,5 22,2 28 15 35 19 E 1015,1 18 0 7,0
12.08.2020 06:00:00 19,9 18,8 19,4 22,0 24,8 22,2 8 4 13 7 SSW 1015,0 10 0 0,3
12.08.2020 05:00:00 20,1 18,4 19,4 22,2 25,1 22,2 8 4 13 7 NE 1015,5 10 0 0,6
12.08.2020 04:00:00 20,7 18,8 19,7 22,4 25,4 22,2 13 7 21 11 ESE 1015,7 20 0 0,3
12.08.2020 03:00:00 20,4 18,9 19,8 22,7 25,8 22,2 4 2 13 7 - 1015,5 10 0 0,2
12.08.2020 02:00:00 21,9 17,9 21,1 23,0 26,2 22,2 9 5 19 10 ESE 1015,2 10 0 0,0
12.08.2020 01:00:00 21,1 18,3 20,4 23,3 26,7 22,2 8 4 15 8 S 1016,0 10 0 0,0
12.08.2020 00:00:00 21,2 17,5 20,6 23,5 27,3 22,1 9 5 20 11 ESE 1015,8 50 0 0,0
11.08.2020 23:00:00 22,4 17,0 21,4 24,3 27,9 22,1 15 8 32 18 ESE 1015,8 50 0 0,0
11.08.2020 22:00:00 21,8 19,8 21,1 25,7 28,6 22,1 11 6 22 12 ESE 1015,5 30 0 1,5
11.08.2020 21:00:00 22,9 19,6 21,3 27,9 29,0 22,1 14 7 31 17 SSE 1015,2 20 0 5,6
11.08.2020 20:00:00 29,6 17,2 29,0 30,7 29,2 22,1 16 8 24 13 S 1013,9 40 0 0,0
11.08.2020 19:00:00 30,5 16,9 30,2 32,0 29,3 22,1 14 8 27 15 E 1013,0 22 0 0,0
11.08.2020 18:00:00 31,1 16,8 31,3 33,6 29,1 22,1 16 9 31 17 E 1013,1 10 5 0,0
11.08.2020 17:00:00 32,2 17,2 34,8 35,5 28,6 22,1 22 12 41 22 ENE 1013,4 10 60 0,0
11.08.2020 16:00:00 31,5 16,8 36,0 35,3 27,9 22,1 28 15 41 22 ENE 1013,9 25 60 0,0
11.08.2020 15:00:00 29,5 16,5 36,5 33,3 27,5 22,1 22 12 39 21 NE 1014,6 10 37 0,0
11.08.2020 14:00:00 29,6 15,1 31,1 31,7 27,1 22,1 15 8 29 16 E 1014,8 10 0 0,0
11.08.2020 13:00:00 31,4 16,7 32,9 32,8 26,5 22,1 18 10 26 14 ESE 1014,9 40 28 0,0
11.08.2020 12:00:00 30,3 16,8 35,6 31,1 26,0 22,1 13 7 25 13 E 1015,0 10 36 0,0
11.08.2020 11:00:00 28,3 16,9 31,6 29,3 25,6 22,1 17 9 26 14 SE 1015,4 40 51 0,0
11.08.2020 10:00:00 26,6 16,8 29,2 27,4 25,4 22,1 11 6 21 11 SSE 1015,4 10 60 0,0
11.08.2020 09:00:00 24,5 16,4 25,6 25,0 25,4 22,1 10 6 16 9 SE 1015,2 40 60 0,0
11.08.2020 08:00:00 23,1 16,3 23,5 23,4 25,7 22,0 5 3 11 6 E 1015,0 10 35 0,0
11.08.2020 07:00:00 19,8 16,0 18,6 22,9 26,0 22,0 8 4 9 5 E 1014,9 35 0 0,0
11.08.2020 06:00:00 19,0 15,6 17,9 23,4 26,4 22,0 4 2 8 4 - 1014,7 10 0 0,0
11.08.2020 05:00:00 19,6 15,9 18,3 23,9 26,8 22,0 5 3 9 5 SSE 1014,7 10 0 0,0
11.08.2020 04:00:00 22,3 16,0 19,4 24,5 27,2 22,0 6 3 9 5 ESE 1014,6 50 0 0,0
11.08.2020 03:00:00 21,7 16,0 19,9 25,2 27,7 22,0 5 3 8 4 S 1014,7 10 0 0,0
11.08.2020 02:00:00 23,8 16,1 21,7 25,9 28,1 22,0 5 3 11 6 ESE 1014,9 10 0 0,0
11.08.2020 01:00:00 25,0 16,2 23,4 26,7 28,6 22,0 8 4 15 8 ESE 1014,7 10 0 0,0
11.08.2020 00:00:00 25,8 16,2 23,7 27,5 29,0 21,9 11 6 13 7 E 1014,4 50 0 0,0
10.08.2020 23:00:00 27,2 15,9 25,5 28,6 29,5 21,9 10 5 11 6 E 1014,0 50 0 0,0
10.08.2020 22:00:00 27,5 17,2 25,2 29,9 29,9 21,9 13 7 15 8 ENE 1013,5 10 0 0,0
10.08.2020 21:00:00 28,5 19,1 26,8 31,7 30,2 21,9 6 3 9 5 ESE 1013,2 50 21 0,0
10.08.2020 20:00:00 29,9 18,8 29,7 33,1 30,4 22,0 5 3 9 5 SE 1012,7 50 1 0,0
10.08.2020 19:00:00 32,1 16,1 32,4 35,1 30,3 22,0 5 3 13 7 SSE 1012,2 10 40 0,0
10.08.2020 18:00:00 33,3 14,8 35,8 36,9 30,0 22,0 9 5 15 8 SSE 1012,4 50 60 0,0
10.08.2020 17:00:00 32,5 14,5 34,7 37,4 29,4 22,0 7 4 19 10 S 1012,9 50 44 0,0
10.08.2020 16:00:00 33,5 14,9 37,7 38,4 28,7 22,0 7 4 22 12 SSE 1013,3 50 60 0,0
10.08.2020 15:00:00 32,2 14,8 37,3 37,4 27,8 21,9 10 6 25 14 SSE 1013,6 50 60 0,0
10.08.2020 14:00:00 32,1 16,5 37,3 37,0 26,8 21,9 9 5 23 12 S 1013,9 45 60 0,0
10.08.2020 13:00:00 31,7 16,9 36,1 35,2 25,8 21,9 8 4 21 11 - 1014,3 10 60 0,0
10.08.2020 12:00:00 29,7 16,3 33,9 32,3 25,1 21,9 13 7 26 14 S 1014,4 10 60 0,0
10.08.2020 11:00:00 28,1 16,6 31,1 28,5 24,7 21,9 12 6 18 10 SSE 1014,8 25 60 0,0
10.08.2020 10:00:00 26,4 17,2 28,2 25,5 24,5 21,9 8 5 15 8 SE 1015,1 23 35 0,0
10.08.2020 09:00:00 22,4 17,7 22,5 23,8 24,6 21,9 10 5 15 8 ESE 1015,3 23 47 0,0
10.08.2020 08:00:00 20,1 17,8 20,0 22,0 24,8 21,9 3 2 8 4 SSW 1015,3 25 3 0,0
10.08.2020 07:00:00 18,8 17,4 18,5 21,8 25,2 21,8 4 2 11 6 - 1015,2 10 0 0,0
10.08.2020 06:00:00 19,4 17,2 18,4 21,9 25,6 21,8 9 5 10 6 SSE 1015,1 35 0 0,0
10.08.2020 05:00:00 21,9 16,8 20,6 22,3 26,0 21,8 13 7 21 11 E 1015,0 10 0 0,0
10.08.2020 04:00:00 22,3 17,0 21,1 23,2 26,4 21,8 13 7 18 10 E 1015,7 35 0 0,0
10.08.2020 03:00:00 21,5 18,5 20,8 23,7 26,8 21,8 6 3 16 9 ESE 1016,2 35 0 0,0
10.08.2020 02:00:00 20,6 19,0 20,2 24,0 27,3 21,8 13 7 11 6 ENE 1016,1 10 0 0,0
10.08.2020 01:00:00 20,2 18,7 19,8 24,4 27,8 21,7 5 3 22 12 SSE 1016,1 10 0 0,0
10.08.2020 00:00:00 20,6 18,6 19,6 25,4 28,4 21,7 10 5 21 11 ENE 1015,2 28 0 0,3
09.08.2020 23:00:00 20,9 19,1 20,2 27,1 28,9 21,7 20 11 22 12 E 1016,1 30 0 1,9
09.08.2020 22:00:00 21,9 19,2 21,1 28,6 29,3 21,7 8 4 22 12 - 1016,2 10 0 0,5
09.08.2020 21:00:00 24,3 18,9 22,5 30,2 29,7 21,7 9 5 26 14 W 1016,2 20 0 0,0

tt = temperature
td = dewpoint
tt 5cm = temperature 5cm
tt -5cm = temperature -5cm
tt -20cm = temperature -20cm
tt -100cm = temperature -100cm
ff = wind speed
fx = gusts
dd = wind direction
ppp = reduced air pressure
vv = visibility
sd = sunshine duration
rr = precipitation

Next stations